EW6338 Weather Reports


Display with metric or nautical units.
time (UTC)temp
F
wind
direction
speed
MPH
gust
MPH
rain 1hr
in
rain 24hr
in
rain mn
in
humidity
%
barometer
mb
20260831053014 65 359 0.0 0.0 0.00 0.00 0.00 89 1016.0
20260831051511 66 359 0.0 0.0 0.00 0.00 0.00 89 1015.9
20260831050009 66 359 0.0 0.0 0.00 0.00 0.00 88 1015.7
20260831044508 67 359 0.0 0.0 0.00 0.00 0.00 87 1015.7
20260831043005 67 359 0.0 2.0 0.00 0.00 0.00 86 1015.5
20260831041609 68 14 0.0 0.0 0.00 0.00 0.00 84 1015.3
20260831040058 69 14 0.0 1.0 0.00 0.00 0.00 83 1015.1
20260831034604 70 11 0.0 0.0 0.00 0.00 0.00 82 1015.3
20260831033056 71 11 0.0 0.0 0.00 0.00 0.00 82 1015.3
20260831031558 71 11 0.0 1.0 0.00 0.00 0.00 82 1015.4
20260831030100 72 302 0.0 1.0 0.00 0.00 0.00 82 1015.3
20260831024555 72 13 0.0 1.0 0.00 0.00 0.00 82 1015.3
20260831023055 72 92 0.0 1.0 0.00 0.00 0.00 81 1015.2
20260831021555 72 122 0.0 4.0 0.00 0.00 0.00 81 1015.1
20260831020053 72 225 0.0 2.0 0.00 0.00 0.00 82 1015.1
20260831014553 71 40 0.0 2.0 0.00 0.00 0.00 83 1015.0
20260831013056 71 14 0.0 0.0 0.00 0.00 0.00 81 1014.8
20260831011552 73 86 0.0 1.0 0.00 0.00 0.00 77 1014.8
20260831010114 74 86 0.0 1.0 0.00 0.00 0.00 73 1014.6
20260831004558 74 134 0.0 3.0 0.00 0.00 0.00 72 1014.4
20260831003102 74 131 0.0 2.0 0.00 0.00 0.00 70 1014.3
20260831001549 74 296 0.0 2.0 0.00 0.00 0.00 68 1014.1
20260831000049 74 90 0.0 1.0 0.00 0.00 0.00 67 1014.0
20260830234548 74 141 0.0 0.0 0.00 0.00 0.00 67 1013.7
20260830233049 75 117 0.0 0.0 0.00 0.00 0.00 66 1013.8
20260830231549 76 266 0.0 2.0 0.00 0.00 0.00 65 1013.6
20260830230045 76 231 0.0 1.0 0.00 0.00 0.00 65 1013.8
20260830224544 76 103 0.0 4.0 0.00 0.00 0.00 64 1014.1
20260830223044 76 293 0.0 4.0 0.00 0.00 0.00 64 1014.2
20260830221542 78 138 0.0 4.0 0.00 0.00 0.00 63 1014.2
20260830220041 77 124 0.0 0.0 0.00 0.00 0.00 64 1014.1
20260830214541 77 259 0.0 4.0 0.00 0.00 0.00 64 1014.2
20260830213039 77 136 0.0 3.0 0.00 0.00 0.00 63 1014.4
20260830211538 78 43 0.0 2.0 0.00 0.00 0.00 62 1014.4
20260830210038 78 115 0.0 7.0 0.00 0.00 0.00 61 1014.5
20260830204538 78 160 0.0 3.0 0.00 0.00 0.00 60 1014.5
20260830203034 78 245 0.0 2.0 0.00 0.00 0.00 60 1014.7
20260830201534 78 3 0.0 7.0 0.00 0.00 0.00 60 1014.7
20260830200032 79 290 0.0 2.0 0.00 0.00 0.00 58 1014.7
20260830194531 79 143 0.0 8.0 0.00 0.00 0.00 57 1014.9
20260830193028 80 146 0.0 0.0 0.00 0.00 0.00 60 1015.3
20260830191528 81 253 0.0 4.0 0.00 0.00 0.00 55 1015.4
20260830190025 82 212 0.0 4.0 0.00 0.00 0.00 55 1015.5
20260830184523 82 224 0.0 3.0 0.00 0.00 0.00 56 1015.7
20260830183026 82 37 0.0 6.0 0.00 0.00 0.00 54 1015.9
20260830181521 83 64 0.0 3.0 0.00 0.00 0.00 54 1016.0
20260830180016 83 304 1.0 5.0 0.00 0.00 0.00 53 1016.3
20260830174523 81 120 0.0 6.0 0.00 0.00 0.00 57 1016.3
20260830173013 81 64 0.0 4.0 0.00 0.00 0.00 56 1016.4
20260830171512 82 117 0.0 5.0 0.00 0.00 0.00 56 1016.4
20260830170010 81 234 0.0 5.0 0.00 0.00 0.00 56 1016.6
20260830164514 81 132 0.0 5.0 0.00 0.00 0.00 58 1016.7
20260830163009 80 177 0.0 6.0 0.00 0.00 0.00 58 1016.6
20260830161508 82 143 0.0 3.0 0.00 0.00 0.00 58 1016.6
20260830160006 81 90 0.0 5.0 0.00 0.00 0.00 59 1016.8
20260830154504 80 177 0.0 5.0 0.00 0.00 0.00 63 1016.8
20260830153103 78 250 0.0 4.0 0.00 0.00 0.00 64 1017.1
20260830151559 77 147 0.0 3.0 0.00 0.00 0.00 65 1017.3
20260830150055 78 252 0.0 2.0 0.00 0.00 0.00 64 1017.3
20260830144552 77 206 0.0 4.0 0.00 0.00 0.00 64 1017.3
20260830143049 76 202 0.0 6.0 0.00 0.00 0.00 67 1017.5
20260830141544 74 259 0.0 5.0 0.00 0.00 0.00 68 1017.7
20260830140052 73 95 0.0 4.0 0.00 0.00 0.00 69 1017.8
20260830134538 72 152 0.0 7.0 0.00 0.00 0.00 71 1017.8
20260830133038 70 131 0.0 2.0 0.00 0.00 0.00 73 1018.0
20260830131530 69 153 0.0 4.0 0.00 0.00 0.00 74 1018.2
20260830130025 68 143 0.0 2.0 0.00 0.00 0.00 76 1018.3
20260830124534 66 141 0.0 3.0 0.00 0.00 0.00 78 1018.4
20260830123020 65 42 0.0 4.0 0.00 0.00 0.00 79 1018.5
20260830121516 64 242 0.0 2.0 0.00 0.00 0.00 80 1018.7
20260830120013 63 247 0.0 3.0 0.00 0.00 0.00 81 1018.7
20260830114510 63 132 0.0 3.0 0.00 0.00 0.00 82 1018.8
20260830113009 62 263 0.0 4.0 0.00 0.00 0.00 83 1018.8
20260830111510 61 120 0.0 0.0 0.00 0.00 0.00 83 1018.7
20260830110010 61 332 0.0 2.0 0.00 0.00 0.00 84 1018.7
20260830104518 61 255 0.0 1.0 0.00 0.00 0.00 84 1018.6
20260830103006 61 295 0.0 1.0 0.00 0.00 0.00 83 1018.6
20260830101508 61 268 0.0 1.0 0.00 0.00 0.00 83 1018.7
20260830100005 62 269 0.0 1.0 0.00 0.00 0.00 83 1018.6
20260830094504 62 7 0.0 0.0 0.00 0.00 0.00 83 1018.7
20260830093002 62 323 0.0 0.0 0.00 0.00 0.00 82 1018.7
20260830091601 62 254 0.0 2.0 0.00 0.00 0.00 82 1019.0
20260830084557 61 276 0.0 1.0 0.00 0.00 0.00 83 1019.2
20260830083102 61 256 0.0 1.0 0.00 0.00 0.00 83 1019.3
20260830081600 61 259 0.0 1.0 0.00 0.00 0.00 84 1019.2
20260830080055 61 224 0.0 0.0 0.00 0.00 0.00 84 1019.2
20260830074555 61 224 0.0 4.0 0.00 0.00 0.00 84 1019.2
20260830073051 60 108 0.0 0.0 0.00 0.00 0.00 86 1019.2
20260830071604 60 108 0.0 1.0 0.00 0.00 0.00 87 1019.1
20260830070055 59 297 0.0 0.0 0.00 0.00 0.00 87 1019.1
20260830064549 60 313 0.0 0.0 0.00 0.00 0.00 86 1019.1
20260830063049 60 313 0.0 1.0 0.00 0.00 0.00 86 1019.1
20260830061548 60 107 0.0 1.0 0.00 0.00 0.00 87 1019.2
20260830060045 60 300 0.0 2.0 0.00 0.00 0.00 88 1019.4
20260830054542 60 236 0.0 1.0 0.00 0.00 0.00 89 1019.4